�N����,����,����,����,����,�C��,���x,�~����,���Ǝ���,�S�V����,�ő�u�ԕ���,,,
,,,,,,,,,,����,����,����,�N��
yyyy/mm/dd,hh:mm:ss,(16),16����,m/s,��,%,mm,min,KW/�u,(16),16����,m/s,Time
2012/7/1,1:00:00,23,�k�k��,1.9,12.7,99.7,0,0,0,23,�k�k��,2.5,51
2012/7/1,2:00:00,68,���k��,1.4,12.5,99.7,0,0,0,23,�k�k��,2.4,17
2012/7/1,3:00:00,45,�k��,1.9,12,99.7,0,0,0,45,�k��,3,59
2012/7/1,4:00:00,23,�k�k��,1.1,12.1,99.8,0,0,0,23,�k�k��,3.4,3
2012/7/1,5:00:00,360,�k,1.4,12.2,99.8,0,0,0.03,23,�k�k��,2.7,44
2012/7/1,6:00:00,360,�k,1.1,13.1,99.8,0,0,0.08,338,�k�k��,2.8,29
2012/7/1,7:00:00,68,���k��,1.7,13.5,99.7,0,59,0.16,68,���k��,3.3,43
2012/7/1,8:00:00,90,��,2.6,13.9,99.7,0,60,0.19,90,��,3.9,40
2012/7/1,9:00:00,113,���쓌,2.1,14.4,98.1,0,60,0.36,113,���쓌,4.1,34
2012/7/1,10:00:00,68,���k��,2.5,15.9,90.9,0,60,0.59,113,���쓌,4.2,45
2012/7/1,11:00:00,90,��,2.9,16.7,87.7,0,60,0.74,45,�k��,4.9,3
2012/7/1,12:00:00,113,���쓌,3.2,16.5,85.5,0,60,0.73,90,��,5.3,42
2012/7/1,13:00:00,113,���쓌,3.1,16.1,86.8,0,60,0.82,90,��,5.2,36
2012/7/1,14:00:00,90,��,3.3,16.2,87,0,60,0.8,68,���k��,5,55
2012/7/1,15:00:00,113,���쓌,3.3,14.8,89.8,0,60,0.7,90,��,5.2,12
2012/7/1,16:00:00,90,��,3.1,13.2,94.6,0,59,0.33,90,��,5.3,25
2012/7/1,17:00:00,68,���k��,2.2,12.9,96.3,0,38,0.14,90,��,3.2,41
2012/7/1,18:00:00,68,���k��,2.4,12.4,97.4,0,10,0.08,68,���k��,3.7,18
2012/7/1,19:00:00,68,���k��,1.9,12.2,98.4,0,0,0.02,90,��,4.3,8
2012/7/1,20:00:00,68,���k��,1.4,12.1,99.1,0,0,0,68,���k��,3.9,25
2012/7/1,21:00:00,45,�k��,1.7,12,99.3,0,0,0,68,���k��,3.7,28
2012/7/1,22:00:00,23,�k�k��,1.9,12,99.5,0,0,0,45,�k��,2.8,3
2012/7/1,23:00:00,45,�k��,1.8,11.8,99.5,0,0,0,23,�k�k��,3.2,0
2012/7/1,0:00:00,360,�k,1.3,12.1,99.6,0,0,0,23,�k�k��,3.3,22
2012/7/2,1:00:00,338,�k�k��,0.9,12.2,99.5,0.5,0,0,23,�k�k��,2.6,16
2012/7/2,2:00:00,315,�k��,0.4,12.6,99.5,0,0,0,315,�k��,2.8,11
2012/7/2,3:00:00,45,�k��,0.5,12.8,99.5,1,0,0,315,�k��,1.6,16
2012/7/2,4:00:00,315,�k��,0.8,13,99.5,0.5,0,0,315,�k��,1.7,49
2012/7/2,5:00:00,293,���k��,1,13.6,99.5,0.5,0,0.02,338,�k�k��,3.1,42
2012/7/2,6:00:00,338,�k�k��,1.2,14.1,99.4,0.5,4,0.07,338,�k�k��,2.1,50
2012/7/2,7:00:00,338,�k�k��,1,14.5,99.2,0.5,0,0.09,23,�k�k��,2.7,38
2012/7/2,8:00:00,23,�k�k��,2.3,15.5,98.5,0.5,51,0.22,23,�k�k��,3.6,52
2012/7/2,9:00:00,23,�k�k��,2.3,15.8,96.7,0,60,0.22,23,�k�k��,3.9,59
2012/7/2,10:00:00,45,�k��,2.7,15,97.8,0.5,60,0.18,45,�k��,5.6,33
2012/7/2,11:00:00,68,���k��,4.6,15.5,97.3,0.5,60,0.24,90,��,6.9,49
2012/7/2,12:00:00,68,���k��,3.4,15.7,96.6,0,60,0.27,68,���k��,7.2,15
2012/7/2,13:00:00,68,���k��,4.2,15.8,95.2,0,60,0.3,45,�k��,7.2,21
2012/7/2,14:00:00,68,���k��,2.4,15.2,98.1,0,60,0.18,68,���k��,5.4,15
2012/7/2,15:00:00,45,�k��,4.1,16.2,96.5,0,60,0.28,68,���k��,6.7,55
2012/7/2,16:00:00,90,��,3.8,15,95.7,0,60,0.24,90,��,5.5,54
2012/7/2,17:00:00,68,���k��,3.5,14.4,96.6,0,43,0.19,68,���k��,5.4,1
2012/7/2,18:00:00,90,��,2.3,14.4,97.7,0,5,0.08,68,���k��,3.7,26
2012/7/2,19:00:00,68,���k��,2.1,13.4,98.9,0,0,0.03,90,��,3.7,31
2012/7/2,20:00:00,90,�É�,0.2,13.5,99.2,0,0,0,45,�k��,2.5,3
2012/7/2,21:00:00,68,���k��,1.8,13.6,99.4,0,0,0,68,���k��,2.5,54
2012/7/2,22:00:00,23,�k�k��,1.6,13.6,99.5,0,0,0,68,���k��,2.5,0
2012/7/2,23:00:00,23,�k�k��,1,13.6,99.6,0,0,0,45,�k��,3.1,22
2012/7/2,0:00:00,360,�k,1.1,13.6,99.6,0,0,0,45,�k��,1.9,12
2012/7/3,1:00:00,338,�k�k��,0.6,13.9,99.6,0.5,0,0,270,��,1.5,46
2012/7/3,2:00:00,338,�É�,0.2,14.1,99.6,0,0,0,315,�k��,1.8,30
2012/7/3,3:00:00,293,���k��,1.6,14.3,99.6,0,0,0,293,���k��,2.4,48
2012/7/3,4:00:00,293,�É�,0.2,14.5,99.5,0,0,0,270,��,2.4,8
2012/7/3,5:00:00,293,���k��,1,14.9,99.5,0,0,0.02,270,��,2.3,42
2012/7/3,6:00:00,23,�k�k��,0.5,15.9,99.2,0,0,0.06,315,�k��,2.3,24
2012/7/3,7:00:00,113,���쓌,1.8,14.6,99.1,0,48,0.14,90,��,3.9,13
2012/7/3,8:00:00,90,��,1.2,15.8,99.3,0,60,0.27,90,��,2.8,6
2012/7/3,9:00:00,90,��,3.7,15.8,97.2,0,60,0.4,68,���k��,5.2,57
2012/7/3,10:00:00,68,���k��,3.1,16.1,96.9,0,60,0.37,90,��,4.9,3
2012/7/3,11:00:00,68,���k��,2.7,18,93.2,0,60,0.51,68,���k��,4.9,30
2012/7/3,12:00:00,90,��,3.1,17.6,89.2,0,60,0.76,90,��,4.7,21
2012/7/3,13:00:00,90,��,3.1,16.9,92.4,0,60,0.65,113,���쓌,4.9,12
2012/7/3,14:00:00,113,���쓌,2.2,16.3,91.2,0,60,0.55,113,���쓌,4.1,3
2012/7/3,15:00:00,113,���쓌,1.4,16.8,92.4,0,60,0.34,113,���쓌,3.6,5
2012/7/3,16:00:00,113,���쓌,1.7,16.8,94.7,0,60,0.3,113,���쓌,3,15
2012/7/3,17:00:00,90,��,2.7,16.4,94.2,0,57,0.19,90,��,3.8,54
2012/7/3,18:00:00,180,��,0.3,14.9,98.5,0,0,0.06,113,���쓌,2.8,1
2012/7/3,19:00:00,135,�쓌,0.3,15.1,99.2,0,0,0.02,203,��쐼,1,10
2012/7/3,20:00:00,68,���k��,1.1,14.9,99.3,0,0,0,90,��,2,25
2012/7/3,21:00:00,90,��,0.8,14.7,99.4,0,0,0,90,��,2.7,11
2012/7/3,22:00:00,90,��,0.3,14.4,99.5,0,0,0,90,��,2.4,13
2012/7/3,23:00:00,203,��쐼,0.4,14.4,99.6,0,0,0,68,���k��,1.6,2
2012/7/3,0:00:00,270,��,0.5,14.5,99.6,0,0,0,270,��,0.9,52
2012/7/4,1:00:00,360,�É�,0.1,14.4,99.6,0,0,0,315,�k��,1,9
2012/7/4,2:00:00,270,�É�,0,14.7,99.6,0,0,0,270,��,0.7,36
2012/7/4,3:00:00,203,�É�,0,14.8,99.6,0,0,0,180,�É�,0,0
2012/7/4,4:00:00,180,��,0.4,14.6,99.6,0,0,0,158,��쓌,1.3,44
2012/7/4,5:00:00,225,�쐼,0.5,14.7,99.6,0,0,0.02,225,�쐼,0.9,55
2012/7/4,6:00:00,203,��쐼,1.4,15.5,99.5,0,21,0.12,180,��,2.1,40
2012/7/4,7:00:00,225,�쐼,1,17.3,98.1,0,60,0.26,248,���쐼,2.1,7
2012/7/4,8:00:00,203,�É�,0.1,18.7,92.3,0,60,0.45,293,���k��,1.9,47
2012/7/4,9:00:00,135,�쓌,2,19.3,85.6,0,60,0.49,113,���쓌,3.8,31
2012/7/4,10:00:00,135,�쓌,2.4,20.3,83.5,0,60,0.63,135,�쓌,4,59
2012/7/4,11:00:00,158,��쓌,3.5,18.4,82.4,0,60,0.81,158,��쓌,5.8,46
2012/7/4,12:00:00,180,��,3.4,19.3,84.7,0,60,0.79,158,��쓌,5.6,18
2012/7/4,13:00:00,158,��쓌,3.6,18.5,85,0,60,0.78,158,��쓌,6.7,38
2012/7/4,14:00:00,158,��쓌,2.5,18.2,88.1,0,60,0.9,158,��쓌,6.5,0
2012/7/4,15:00:00,158,��쓌,2.6,17.2,87.5,0,60,0.67,203,��쐼,4.8,38
2012/7/4,16:00:00,135,�쓌,2.1,16.7,89.8,0,60,0.45,135,�쓌,3.9,30
2012/7/4,17:00:00,135,�쓌,1.8,17,92.3,0,60,0.21,180,��,3.6,7
2012/7/4,18:00:00,113,���쓌,1.4,15.8,97.3,0,7,0.08,113,���쓌,2.6,7
2012/7/4,19:00:00,45,�k��,1.7,15,98.9,0,0,0.02,90,��,2.7,4
2012/7/4,20:00:00,45,�k��,1.4,15.2,99.3,0,0,0,45,�k��,2.6,4
2012/7/4,21:00:00,45,�k��,2.1,15.2,99.5,0,0,0,45,�k��,2.8,53
2012/7/4,22:00:00,23,�k�k��,1.7,15,99.6,0,0,0,68,���k��,3.9,13
2012/7/4,23:00:00,45,�k��,1.5,14.6,99.6,0,0,0,23,�k�k��,2.2,59
2012/7/4,0:00:00,23,�k�k��,1.1,14.6,99.7,0,0,0,45,�k��,3.3,37
2012/7/5,1:00:00,68,���k��,1.1,14.4,99.7,0,0,0,68,���k��,2.5,20
2012/7/5,2:00:00,225,�쐼,1,14.3,99.7,0,0,0,248,���쐼,3.4,19
2012/7/5,3:00:00,203,��쐼,0.7,13.6,99.8,0,0,0,203,��쐼,2.2,44
2012/7/5,4:00:00,90,�É�,0.2,13.4,99.8,0,0,0,90,��,1.5,40
2012/7/5,5:00:00,338,�k�k��,0.7,13.6,99.8,0,0,0.04,338,�k�k��,1.5,15
2012/7/5,6:00:00,45,�É�,0.1,14.2,99.9,0,26,0.12,45,�k��,1.6,43
2012/7/5,7:00:00,113,���쓌,0.5,15.2,99.8,0,60,0.22,68,���k��,1.6,49
2012/7/5,8:00:00,135,�쓌,2.3,15.1,99.6,0,60,0.31,113,���쓌,3,55
2012/7/5,9:00:00,113,���쓌,2.1,14.7,98.3,0,60,0.44,90,��,4.4,22
2012/7/5,10:00:00,90,��,2,16.7,93.1,0,60,0.68,90,��,3.9,45
2012/7/5,11:00:00,113,���쓌,2.6,18,78.8,0,60,0.94,113,���쓌,4.3,48
2012/7/5,12:00:00,135,�쓌,1.7,18.3,84.2,0,60,0.9,90,��,4.6,10
2012/7/5,13:00:00,135,�쓌,1.8,16.5,90.6,0,60,0.54,113,���쓌,4.2,7
2012/7/5,14:00:00,90,��,1.9,15.2,96.3,0,60,0.22,113,���쓌,3.7,12
2012/7/5,15:00:00,68,���k��,2.9,15.8,94.9,0,60,0.28,90,��,4.3,43
2012/7/5,16:00:00,45,�k��,2.5,16,95.6,0,52,0.14,68,���k��,4.6,41
2012/7/5,17:00:00,45,�k��,2.9,17,92.8,0,14,0.12,45,�k��,4.7,56
2012/7/5,18:00:00,68,���k��,3.4,16,94.7,0,29,0.13,45,�k��,6,38
2012/7/5,19:00:00,68,���k��,2.5,15,97.1,0,0,0.02,68,���k��,6.4,21
2012/7/5,20:00:00,45,�k��,2.3,14.7,99,0,0,0,68,���k��,4.2,3
2012/7/5,21:00:00,68,���k��,2.8,14.6,99.4,0,0,0,68,���k��,3.8,56
2012/7/5,22:00:00,45,�k��,2.2,14.6,99.6,0,0,0,23,�k�k��,4.1,38
2012/7/5,23:00:00,68,���k��,2.6,14.5,99.6,0,0,0,45,�k��,4.7,52
2012/7/5,0:00:00,23,�k�k��,2.5,14.6,99.7,0,0,0,45,�k��,3.7,1
2012/7/6,1:00:00,360,�k,1.1,14.7,99.7,0,0,0,23,�k�k��,3.8,12
2012/7/6,2:00:00,45,�k��,1.2,14.8,99.7,0,0,0,45,�k��,1.9,0
2012/7/6,3:00:00,90,��,1.9,14.5,99.7,0,0,0,90,��,3.3,47
2012/7/6,4:00:00,23,�k�k��,1.6,14.5,99.7,0,0,0,45,�k��,3.3,16
2012/7/6,5:00:00,23,�k�k��,1.2,15,99.7,0,0,0.02,45,�k��,2.5,45
2012/7/6,6:00:00,90,��,1,15.8,99.7,0,2,0.07,68,���k��,2.2,7
2012/7/6,7:00:00,45,�k��,1.3,16.8,99.4,0,41,0.14,68,���k��,1.9,44
2012/7/6,8:00:00,45,�k��,0.8,18.7,96.7,0,60,0.26,360,�k,2.4,24
2012/7/6,9:00:00,113,���쓌,2.4,18.9,88.5,0,60,0.39,113,���쓌,3.6,52
2012/7/6,10:00:00,113,���쓌,2,17.5,91,0,60,0.38,113,���쓌,3.7,13
2012/7/6,11:00:00,113,���쓌,1.8,18.4,89.3,0,60,0.5,90,��,4.1,13
2012/7/6,12:00:00,158,��쓌,2.1,19.6,80.1,0,60,0.8,113,���쓌,4.1,23
2012/7/6,13:00:00,113,���쓌,3,19.6,81.5,0,60,0.81,113,���쓌,5,46
2012/7/6,14:00:00,90,��,2.9,20.8,80.8,0,60,0.91,90,��,4.6,48
2012/7/6,15:00:00,113,���쓌,2,19.2,86.3,0,60,0.62,113,���쓌,4.7,14
2012/7/6,16:00:00,90,��,2.9,17.1,90.4,0,60,0.41,113,���쓌,4.7,30
2012/7/6,17:00:00,113,���쓌,1.3,16,94.8,0,35,0.14,113,���쓌,4.4,4
2012/7/6,18:00:00,113,�É�,0.2,16,96.3,0,0,0.04,180,��,1.6,36
2012/7/6,19:00:00,45,�k��,1.8,15.5,98.3,0,0,0.01,45,�k��,2.6,16
2012/7/6,20:00:00,45,�k��,0.5,15.5,99.2,0,0,0,45,�k��,2.4,0
2012/7/6,21:00:00,68,�É�,0.2,15.3,99.4,0,0,0,68,���k��,1.2,21
2012/7/6,22:00:00,68,���k��,1.6,15.4,99.5,0,0,0,68,���k��,2.5,50
2012/7/6,23:00:00,23,�k�k��,0.7,15.8,99.5,0,0,0,23,�k�k��,2.2,9
2012/7/6,0:00:00,90,�É�,0.2,15.9,99.4,0,0,0,90,��,0.7,51
2012/7/7,1:00:00,23,�k�k��,1.1,16,99.4,0,0,0,23,�k�k��,1.6,57
2012/7/7,2:00:00,203,�É�,0,16.1,99.4,0,0,0,23,�k�k��,1.4,0
2012/7/7,3:00:00,113,���쓌,1.7,14.5,99.3,0,0,0,113,���쓌,2.8,41
2012/7/7,4:00:00,68,���k��,1.4,14.6,99.6,0,0,0,68,���k��,2.4,34
2012/7/7,5:00:00,68,���k��,1.2,14.9,99.7,0,0,0.02,68,���k��,1.8,55
2012/7/7,6:00:00,90,��,0.4,15.2,99.8,0,0,0.05,68,���k��,2,1
2012/7/7,7:00:00,113,���쓌,0.7,15.8,99.7,0,0,0.08,113,���쓌,1.7,59
2012/7/7,8:00:00,90,��,1.2,15.9,99.6,0,40,0.13,90,��,2.5,40
2012/7/7,9:00:00,113,���쓌,1.2,16.4,99.3,0,60,0.18,90,��,1.9,54
2012/7/7,10:00:00,338,�k�k��,0.9,20.4,91.8,0,60,0.48,45,�k��,3.3,40
2012/7/7,11:00:00,113,���쓌,3.8,17.7,85,0,60,0.59,113,���쓌,5.4,58
2012/7/7,12:00:00,113,���쓌,4,17.7,85.7,0,60,0.5,113,���쓌,6.2,37
2012/7/7,13:00:00,113,���쓌,2.6,17,89.8,0,60,0.49,90,��,5,3
2012/7/7,14:00:00,68,���k��,1.3,18.2,86.3,0,60,0.37,113,���쓌,3.2,2
2012/7/7,15:00:00,113,���쓌,2.6,16.9,88.7,0,60,0.44,113,���쓌,3.7,54
2012/7/7,16:00:00,90,��,2.6,17.3,89,0,60,0.39,90,��,4,59
2012/7/7,17:00:00,90,��,2.5,16.3,92.3,0,60,0.18,90,��,4.6,23
2012/7/7,18:00:00,90,��,1.1,15,97.7,0,5,0.07,90,��,3.7,4
2012/7/7,19:00:00,135,�쓌,0.9,14.7,99,0,0,0.01,68,���k��,2.1,33
2012/7/7,20:00:00,45,�k��,0.4,14.9,99.5,0,0,0,23,�k�k��,1.1,45
2012/7/7,21:00:00,90,��,0.8,14.8,99.4,0,0,0,113,���쓌,1.9,21
2012/7/7,22:00:00,45,�k��,0.7,15,99.5,0,0,0,23,�k�k��,1.6,27
2012/7/7,23:00:00,45,�k��,1.5,15,99.6,0,0,0,23,�k�k��,2.5,49
2012/7/7,0:00:00,68,���k��,1.1,14.8,99.6,0,0,0,68,���k��,2.4,22
2012/7/8,1:00:00,113,���쓌,1.8,14.6,99.5,0,0,0,113,���쓌,2.5,51
2012/7/8,2:00:00,23,�k�k��,0.7,14.7,99.7,0,0,0,113,���쓌,1.9,5
2012/7/8,3:00:00,90,��,2,14.8,99.7,0,0,0,90,��,2.8,51
2012/7/8,4:00:00,23,�k�k��,0.4,14.9,99.7,0,0,0,90,��,2.9,7
2012/7/8,5:00:00,113,���쓌,1.3,14.8,99.8,0,0,0.01,113,���쓌,1.9,51
2012/7/8,6:00:00,135,�쓌,1.3,14.5,99.8,0,0,0.04,135,�쓌,2.1,11
2012/7/8,7:00:00,135,�쓌,1.2,14.5,99.8,0,3,0.07,158,��쓌,2.2,47
2012/7/8,8:00:00,135,�쓌,0.7,14.8,99.8,0,59,0.16,135,�쓌,2.1,29
2012/7/8,9:00:00,90,��,0.8,15.8,99.5,0,60,0.27,90,��,1.7,51
2012/7/8,10:00:00,135,�쓌,0.7,17,94.7,0,60,0.37,90,��,2.5,29
2012/7/8,11:00:00,135,�쓌,2.3,17.5,84.3,0,60,0.56,113,���쓌,3.4,58
2012/7/8,12:00:00,158,��쓌,2.1,17.2,83.3,0,60,0.61,90,��,3.8,14
2012/7/8,13:00:00,135,�쓌,2.6,17,86.6,0,60,0.6,135,�쓌,4.2,47
2012/7/8,14:00:00,113,���쓌,3.1,16.9,84.2,0,60,0.71,135,�쓌,5.6,50
2012/7/8,15:00:00,135,�쓌,2.8,15.7,89.6,0,60,0.47,135,�쓌,5.1,53
2012/7/8,16:00:00,135,�쓌,2.3,15.1,92.3,0,58,0.34,113,���쓌,4.7,13
2012/7/8,17:00:00,135,�쓌,2.1,15.2,93,0,47,0.15,135,�쓌,3.5,13
2012/7/8,18:00:00,135,�쓌,1.4,14.5,96.2,0,2,0.05,135,�쓌,4.2,38
2012/7/8,19:00:00,113,���쓌,2,14.3,98.7,0,0,0.01,113,���쓌,3.5,58
2012/7/8,20:00:00,113,���쓌,3,14.3,99.3,0,0,0,135,�쓌,4.3,51
2012/7/8,21:00:00,113,���쓌,2.4,14.6,99.6,0,0,0,113,���쓌,4.6,2
2012/7/8,22:00:00,113,���쓌,2.4,14.7,99.7,0.5,0,0,113,���쓌,4.3,3
2012/7/8,23:00:00,113,���쓌,1.6,14.8,99.8,0,0,0,90,��,3.8,15
2012/7/8,0:00:00,90,��,1.8,14.5,99.8,0,0,0,90,��,3.9,2
2012/7/9,1:00:00,68,���k��,3.4,14.4,99.9,0,0,0,68,���k��,5.4,54
2012/7/9,2:00:00,23,�k�k��,2.3,14.1,99.9,0,0,0,68,���k��,4.2,2
2012/7/9,3:00:00,23,�k�k��,2.2,14.1,99.9,0.5,0,0,23,�k�k��,4.3,8
2012/7/9,4:00:00,338,�k�k��,1.1,14.2,99.9,0,0,0,23,�k�k��,3.2,2
2012/7/9,5:00:00,338,�k�k��,1.1,14.3,100,0,0,0.01,360,�k,2.6,13
2012/7/9,6:00:00,45,�k��,0.4,14.6,99.9,0,0,0.03,315,�k��,1.6,23
2012/7/9,7:00:00,158,��쓌,0.3,14.5,99.8,0.5,0,0.05,90,��,1.7,41
2012/7/9,8:00:00,45,�k��,1,14.8,99.7,0,0,0.05,23,�k�k��,1.7,56
2012/7/9,9:00:00,68,���k��,1.7,15,99.1,0,7,0.1,90,��,2.6,52
2012/7/9,10:00:00,68,���k��,2.1,14.7,98.9,0,36,0.14,90,��,3.7,43
2012/7/9,11:00:00,90,��,2.2,15,99.3,0,46,0.13,68,���k��,3.2,4
2012/7/9,12:00:00,68,���k��,2.2,16.3,99.2,0,43,0.24,90,��,3.4,30
2012/7/9,13:00:00,90,��,2.9,16.2,93.6,0,60,0.35,90,��,3.9,58
2012/7/9,14:00:00,90,��,3.6,16.9,92.1,0,60,0.43,90,��,4.9,59
2012/7/9,15:00:00,68,���k��,4.3,16.9,90.6,0,60,0.55,68,���k��,5.5,56
2012/7/9,16:00:00,90,��,3.2,16.9,91.6,0,60,0.37,68,���k��,4.8,0
2012/7/9,17:00:00,68,���k��,2.4,16.6,94.5,0,60,0.32,90,��,4.4,47
2012/7/9,18:00:00,68,���k��,3.9,14.8,97.2,0,10,0.09,68,���k��,5.5,52
2012/7/9,19:00:00,45,�k��,1.4,14.6,99,0,0,0.02,68,���k��,5.4,3
2012/7/9,20:00:00,360,�k,0.6,14.8,99.4,0,0,0,68,���k��,2.2,9
2012/7/9,21:00:00,203,��쐼,0.3,14.9,99.5,0,0,0,225,�쐼,1.2,36
2012/7/9,22:00:00,90,��,1.7,14.5,99.6,0,0,0,90,��,2.5,59
2012/7/9,23:00:00,68,���k��,1.8,14,99.8,0,0,0,90,��,3,14
2012/7/9,0:00:00,68,���k��,2.2,14.1,99.8,0,0,0,68,���k��,3,57
2012/7/10,1:00:00,360,�É�,0.2,14.2,99.9,0,0,0,45,�k��,3.4,6
2012/7/10,2:00:00,338,�k�k��,0.8,14.3,99.9,0,0,0,23,�k�k��,2.2,46
2012/7/10,3:00:00,360,�k,1.1,14.5,99.9,0,0,0,23,�k�k��,1.8,55
2012/7/10,4:00:00,338,�k�k��,1.2,14.6,99.9,0,0,0,315,�k��,2.2,52
2012/7/10,5:00:00,45,�É�,0.1,15,100,0,0,0.02,360,�k,2.2,16
2012/7/10,6:00:00,338,�k�k��,0.4,15.6,99.9,0,0,0.06,68,���k��,1.5,3
2012/7/10,7:00:00,45,�k��,0.9,16,99.8,0,40,0.17,338,�k�k��,1.9,14
2012/7/10,8:00:00,135,�쓌,1.1,16,99.4,0,60,0.24,135,�쓌,2.1,40
2012/7/10,9:00:00,158,��쓌,1.8,17.1,96.6,0,60,0.4,158,��쓌,2.8,56
2012/7/10,10:00:00,158,��쓌,2.5,19.6,83.4,0,60,0.86,158,��쓌,3.9,58
2012/7/10,11:00:00,135,�쓌,2.5,18.7,85.6,0,60,0.96,158,��쓌,4.4,21
2012/7/10,12:00:00,90,��,2.7,19.5,82.9,0,60,1.02,135,�쓌,4.4,30
2012/7/10,13:00:00,113,���쓌,2.5,17.8,85.7,0,60,0.96,135,�쓌,5.5,41
2012/7/10,14:00:00,158,��쓌,1.8,19.3,84.9,0,60,0.88,135,�쓌,4.7,3
2012/7/10,15:00:00,135,�쓌,2,16.7,92.2,0,60,0.6,113,���쓌,4,7
2012/7/10,16:00:00,135,�쓌,0.7,16.2,96.1,0,60,0.3,180,��,3.2,23
2012/7/10,17:00:00,68,���k��,2.3,17.1,94.5,0,52,0.22,68,���k��,3.2,55
2012/7/10,18:00:00,90,��,3,15.7,97.4,0,15,0.11,90,��,4.1,53
2012/7/10,19:00:00,68,���k��,2.2,15,98.9,0,0,0.03,68,���k��,4.5,24
2012/7/10,20:00:00,45,�k��,2.1,14.6,99.4,0,0,0,90,��,4.2,32
2012/7/10,21:00:00,23,�k�k��,1.6,14.8,99.6,0,0,0,45,�k��,3.1,5
2012/7/10,22:00:00,315,�k��,0.9,14.9,99.7,0,0,0,23,�k�k��,2,38
2012/7/10,23:00:00,293,���k��,0.5,15,99.8,0,0,0,338,�k�k��,1.3,3
2012/7/10,0:00:00,360,�k,0.5,14.7,99.7,0,0,0,315,�k��,1.4,15
2012/7/11,1:00:00,248,���쐼,0.4,13.9,99.8,0,0,0,360,�k,1.2,34
2012/7/11,2:00:00,270,��,1,13,99.9,0,0,0,270,��,1.9,0
2012/7/11,3:00:00,270,�É�,0,12.3,100,0,0,0,270,��,1.9,1
2012/7/11,4:00:00,360,�É�,0,11.1,100,0,0,0,23,�k�k��,1,8
2012/7/11,5:00:00,225,�쐼,0.4,13,100,0,0,0.03,225,�쐼,1.3,59
2012/7/11,6:00:00,315,�É�,0,13.9,100,0,30,0.12,203,��쐼,1.7,1
2012/7/11,7:00:00,45,�k��,1.2,16,100,0,60,0.24,45,�k��,2,57
2012/7/11,8:00:00,68,���k��,1.7,16.6,99.5,0,60,0.44,45,�k��,2.8,46
2012/7/11,9:00:00,135,�쓌,2.4,18.8,85.1,0,60,0.76,113,���쓌,3.9,52
2012/7/11,10:00:00,135,�쓌,2.9,18.3,82.2,0,60,0.91,135,�쓌,5,40
2012/7/11,11:00:00,135,�쓌,2.5,17.9,85.9,0,60,0.94,135,�쓌,4.7,26
2012/7/11,12:00:00,113,���쓌,2.5,16.3,90.7,0,60,0.75,113,���쓌,4.3,46
2012/7/11,13:00:00,113,���쓌,2.5,16.5,91,0,60,0.48,158,��쓌,4.2,34
2012/7/11,14:00:00,135,�쓌,1.7,16.5,91.7,0,60,0.6,113,���쓌,3.7,10
2012/7/11,15:00:00,90,��,1.9,16.2,89.8,0,60,0.29,113,���쓌,3.7,8
2012/7/11,16:00:00,90,��,2.4,16,91.2,0,56,0.22,45,�k��,4,34
2012/7/11,17:00:00,68,���k��,1.7,15.7,92.7,0,12,0.09,90,��,3.4,3
2012/7/11,18:00:00,90,��,2.3,15.2,95.3,0,0,0.05,90,��,3.5,37
2012/7/11,19:00:00,68,���k��,3,14.6,98.6,0,0,0.01,68,���k��,4.3,51
2012/7/11,20:00:00,45,�k��,2.3,14.6,99.3,0,0,0,68,���k��,3.9,3
2012/7/11,21:00:00,45,�k��,1.6,15,99.6,0,0,0,45,�k��,2.8,19
2012/7/11,22:00:00,23,�k�k��,1.4,15.1,99.7,0,0,0,23,�k�k��,3.4,10
2012/7/11,23:00:00,360,�k,1.1,15.3,99.7,0,0,0,23,�k�k��,2.8,5
2012/7/11,0:00:00,23,�k�k��,1.5,15.6,99.7,0.5,0,0,315,�k��,3.1,34
2012/7/12,1:00:00,158,��쓌,0.8,15.6,99.7,0,0,0,45,�k��,2,16
2012/7/12,2:00:00,113,�É�,0.2,15.2,99.8,0.5,0,0,68,���k��,3.2,23
2012/7/12,3:00:00,113,���쓌,0.9,14.8,99.7,0.5,0,0,90,��,3.4,10
2012/7/12,4:00:00,45,�k��,2.2,14.8,99.8,0,0,0,45,�k��,4.8,58
2012/7/12,5:00:00,23,�k�k��,1.3,15,99.8,2,0,0.01,68,���k��,5.2,18
2012/7/12,6:00:00,68,���k��,2.2,14.9,99.7,1.5,0,0.02,90,��,3.4,53
2012/7/12,7:00:00,68,���k��,3,14.8,99.6,1.5,0,0.04,68,���k��,5.3,50
2012/7/12,8:00:00,45,�k��,3.3,15,99.5,3,1,0.06,45,�k��,6.1,31
2012/7/12,9:00:00,45,�k��,3.4,15.4,99,0,17,0.11,45,�k��,6.4,1
2012/7/12,10:00:00,68,���k��,2.7,15.7,99.1,2,17,0.09,68,���k��,5.1,46
2012/7/12,11:00:00,23,�k�k��,2.5,16.4,99,4.5,25,0.12,68,���k��,5.2,4
2012/7/12,12:00:00,293,���k��,1.5,16.6,99,6,17,0.1,23,�k�k��,3.2,0
2012/7/12,13:00:00,338,�k�k��,1.3,16.4,98.4,5,3,0.09,23,�k�k��,5,37
2012/7/12,14:00:00,23,�k�k��,3.7,16.6,97.7,5,0,0.08,23,�k�k��,7.7,32
2012/7/12,15:00:00,23,�k�k��,3.6,16.9,96.9,2,10,0.09,23,�k�k��,7.4,7
2012/7/12,16:00:00,315,�k��,1.6,17.5,97.8,1.5,30,0.12,23,�k�k��,6.3,0
2012/7/12,17:00:00,360,�k,0.9,18,96.7,0,16,0.09,338,�k�k��,2.8,28
2012/7/12,18:00:00,360,�k,1.1,17.9,96.3,0,0,0.06,23,�k�k��,2.2,57
2012/7/12,19:00:00,45,�É�,0,17.5,97.1,0,0,0.02,23,�k�k��,2.7,14
2012/7/12,20:00:00,203,��쐼,1.5,17,98.9,0.5,0,0,203,��쐼,2,57
2012/7/12,21:00:00,158,��쓌,1.8,15.9,99.2,0,0,0,180,��,2.8,24
2012/7/12,22:00:00,158,��쓌,0.7,15.5,99.6,0,0,0,180,��,2.6,16
2012/7/12,23:00:00,158,��쓌,1,15,99.7,0,0,0,158,��쓌,2.5,35
2012/7/12,0:00:00,68,���k��,0.9,15,99.8,0,0,0,135,�쓌,2,27
2012/7/13,1:00:00,68,���k��,1.8,14.7,99.9,0,0,0,45,�k��,2.9,58
2012/7/13,2:00:00,23,�k�k��,1.6,14.8,99.9,0,0,0,68,���k��,3.2,5
2012/7/13,3:00:00,23,�k�k��,1.3,15.1,99.9,0,0,0,360,�k,2.7,5
2012/7/13,4:00:00,360,�k,0.7,14.9,100,0,0,0,360,�k,1.7,47
2012/7/13,5:00:00,90,��,1.1,15.4,99.9,0,0,0.03,113,���쓌,2.8,32
2012/7/13,6:00:00,90,��,1.4,16.2,99.9,0,41,0.13,113,���쓌,2.4,56
2012/7/13,7:00:00,90,��,1.9,16.4,99.9,0,43,0.14,90,��,3.6,15
2012/7/13,8:00:00,180,��,0.8,17.3,99.1,0,60,0.27,113,���쓌,3.3,6
2012/7/13,9:00:00,180,��,2.1,19.2,93.3,0,60,0.26,158,��쓌,4.1,55
2012/7/13,10:00:00,203,��쐼,3.5,23,82.8,0,60,0.47,203,��쐼,5.5,51
2012/7/13,11:00:00,203,��쐼,3.6,25,67.5,0,60,0.68,203,��쐼,5.9,47
2012/7/13,12:00:00,225,�쐼,4.7,23.3,70.6,0,60,0.41,225,�쐼,9.7,44
2012/7/13,13:00:00,248,���쐼,4.3,24.1,71.4,0,60,0.49,225,�쐼,8.7,0
2012/7/13,14:00:00,225,�쐼,5.3,23.6,73.5,0,60,0.5,225,�쐼,8.2,48
2012/7/13,15:00:00,203,��쐼,3.8,23.5,70.1,0,60,0.8,225,�쐼,11.4,4
2012/7/13,16:00:00,158,��쓌,3.2,22.5,71.4,0,60,0.62,248,���쐼,6.9,19
2012/7/13,17:00:00,203,��쐼,4.8,21.4,66.1,0,60,0.41,180,��,9.2,42
2012/7/13,18:00:00,225,�쐼,5,21.6,66,0,60,0.26,203,��쐼,8.9,3
2012/7/13,19:00:00,225,�쐼,2.4,20.4,70.1,0,14,0.08,225,�쐼,8.3,9
2012/7/13,20:00:00,270,��,4,19.4,75.4,0,0,0,270,��,6.8,57
2012/7/13,21:00:00,360,�k,1.5,18,80.7,0,0,0,248,���쐼,6.4,1
2012/7/13,22:00:00,270,��,1.1,14.9,95.4,0,0,0,225,�쐼,2.4,23
2012/7/13,23:00:00,270,��,1.6,14.6,96.1,0,0,0,23,�k�k��,2.5,18
2012/7/13,0:00:00,23,�k�k��,1.3,14.1,94.8,0,0,0,113,���쓌,3.2,39
2012/7/14,1:00:00,68,���k��,2.8,14.8,95.1,0,0,0,68,���k��,4.2,47
2012/7/14,2:00:00,360,�É�,0.2,12.5,97.4,0,0,0,68,���k��,2.7,0
2012/7/14,3:00:00,248,���쐼,0.4,11.7,98.8,0,0,0,203,��쐼,1.2,43
2012/7/14,4:00:00,315,�k��,0.5,11.7,99.4,0,0,0,315,�k��,1.4,47
2012/7/14,5:00:00,338,�k�k��,1.2,13.7,99.5,0,0,0.02,338,�k�k��,2.1,58
2012/7/14,6:00:00,293,���k��,1.4,14.3,99.2,0,0,0.08,360,�k,2.5,1
2012/7/14,7:00:00,90,��,2.6,14.4,95.3,0,52,0.15,113,���쓌,3.4,51
2012/7/14,8:00:00,113,���쓌,2.2,15.8,91.9,0,60,0.36,113,���쓌,3.5,59
2012/7/14,9:00:00,113,���쓌,2.6,17.1,87.2,0,60,0.65,90,��,4.8,32
2012/7/14,10:00:00,135,�쓌,2.7,15.5,88.9,0,60,0.71,113,���쓌,5.3,1
2012/7/14,11:00:00,135,�쓌,2.3,15.5,89.5,0,60,0.69,113,���쓌,5,32
2012/7/14,12:00:00,113,���쓌,2.4,16.9,87.8,0,60,0.78,135,�쓌,4.5,22
2012/7/14,13:00:00,113,���쓌,2.8,15.2,90.6,0,60,0.63,113,���쓌,4.5,35
2012/7/14,14:00:00,113,���쓌,3.3,15.3,92,0,60,0.29,113,���쓌,4.3,58
2012/7/14,15:00:00,113,���쓌,2.1,16.4,88.6,0,60,0.44,90,��,4.2,1
2012/7/14,16:00:00,113,���쓌,2.1,15,94.5,0,60,0.29,113,���쓌,4.1,18
2012/7/14,17:00:00,113,���쓌,1,14.3,95.5,0,29,0.13,113,���쓌,3.7,15
2012/7/14,18:00:00,90,��,1.7,14.4,95.2,0,0,0.07,68,���k��,3.1,37
2012/7/14,19:00:00,90,��,0.5,14.1,97.7,0,0,0.03,90,��,2.4,2
2012/7/14,20:00:00,248,�É�,0.1,14.3,97.2,0,0,0,315,�k��,0.9,48
2012/7/14,21:00:00,90,��,1.1,13.9,97.8,0,0,0,90,��,1.7,59
2012/7/14,22:00:00,90,��,0.7,14.3,98.5,0,0,0,113,���쓌,2.9,17
2012/7/14,23:00:00,158,��쓌,0.3,14.4,97.9,0,0,0,68,���k��,1.2,13
2012/7/14,0:00:00,90,��,1,14.4,96,0,0,0,90,��,1.8,46
2012/7/15,1:00:00,113,���쓌,1.1,13.9,98.8,0,0,0,135,�쓌,1.8,59
2012/7/15,2:00:00,113,���쓌,1.2,13.8,99.4,0,0,0,113,���쓌,2.6,57
2012/7/15,3:00:00,90,��,1.3,13.6,99.5,0,0,0,113,���쓌,2.7,13
2012/7/15,4:00:00,113,���쓌,0.8,13.6,99.6,0,0,0,90,��,2,6
2012/7/15,5:00:00,113,���쓌,1.5,13.6,99.7,0,0,0.02,113,���쓌,2.3,54
2012/7/15,6:00:00,113,���쓌,0.3,13.7,99.7,0,0,0.05,90,��,1.8,39
2012/7/15,7:00:00,113,���쓌,0.5,13.9,99.5,0,0,0.08,113,���쓌,1.9,31
2012/7/15,8:00:00,90,��,0.8,14.5,99.3,0,0,0.08,90,��,1.5,55
2012/7/15,9:00:00,180,�É�,0.2,14.9,98.4,0.5,0,0.08,315,�k��,1.3,23
2012/7/15,10:00:00,68,���k��,1.2,14.9,98.4,0.5,16,0.1,45,�k��,1.8,39
2012/7/15,11:00:00,113,���쓌,1.9,14.4,98.6,0.5,9,0.1,113,���쓌,2.8,20
2012/7/15,12:00:00,90,��,1.9,14.6,99,1.5,20,0.11,113,���쓌,3.4,5
2012/7/15,13:00:00,90,��,2.2,14.8,97.8,0,60,0.21,90,��,3.2,44
2012/7/15,14:00:00,90,��,3.1,15.1,94.2,0,60,0.26,90,��,4.5,24
2012/7/15,15:00:00,90,��,3.4,16.2,90,0,60,0.47,90,��,4.9,50
2012/7/15,16:00:00,90,��,3.4,14.9,90.7,0,60,0.39,90,��,5.2,46
2012/7/15,17:00:00,90,��,2.8,14.2,95,0,46,0.17,90,��,4.6,31
2012/7/15,18:00:00,90,��,2.5,13.5,95.2,0,4,0.08,90,��,4.4,20
2012/7/15,19:00:00,68,���k��,1.9,13.2,96.3,0,0,0.02,90,��,3.8,11
2012/7/15,20:00:00,90,��,0.8,13.2,96.1,0,0,0,68,���k��,2.3,21
2012/7/15,21:00:00,158,��쓌,0.8,13.1,95.9,0,0,0,68,���k��,1.5,17
2012/7/15,22:00:00,360,�É�,0,13.1,95.8,0,0,0,158,��쓌,0.9,7
2012/7/15,23:00:00,203,��쐼,0.7,13,97.4,0,0,0,203,��쐼,1.1,56
2012/7/15,0:00:00,225,�쐼,0.6,13.2,97.7,0,0,0,225,�쐼,0.9,59
2012/7/16,1:00:00,225,�É�,0.2,13.2,98.6,0,0,0,248,���쐼,1.7,7
2012/7/16,2:00:00,225,�쐼,0.5,13.4,98.7,0,0,0,203,��쐼,1.1,35
2012/7/16,3:00:00,180,��,0.5,13.6,98.7,0,0,0,225,�쐼,2.2,26
2012/7/16,4:00:00,225,�쐼,1.5,13.6,99.2,0,0,0,225,�쐼,2.9,49
2012/7/16,5:00:00,225,�쐼,0.6,13.8,99.6,0,0,0.02,248,���쐼,2.2,26
2012/7/16,6:00:00,203,��쐼,1.1,14.1,99.6,0,0,0.07,203,��쐼,2.5,41
2012/7/16,7:00:00,180,��,0.5,15,97.6,0,56,0.16,203,��쐼,2.3,10
2012/7/16,8:00:00,248,�É�,0.1,16.1,93.8,0,53,0.18,158,��쓌,1.8,37
2012/7/16,9:00:00,135,�쓌,0.8,15.8,92.9,0,38,0.14,180,��,2.2,58
2012/7/16,10:00:00,135,�쓌,2,15,92.7,0,58,0.17,135,�쓌,4,32
2012/7/16,11:00:00,135,�쓌,1.5,14.4,94.6,0,60,0.19,158,��쓌,3.7,44
2012/7/16,12:00:00,135,�쓌,1.5,15,96.2,0,60,0.17,180,��,2.8,8